This is the latest recevied weather packets stored in our database for station/object N0HOT. If no packets are shown the sender has not sent any weather packets the latest 10 day(s).
| Time | Temp. | Humidity | Pressure | Rain* | Wind** | Luminosity | Snow |
|---|---|---|---|---|---|---|---|
| 1776971197 | 25.56° C | 52% | 1001.8 hPa | 0 mm | - | 158 W/m² | - |
| 1776970892 | 25.56° C | 51% | 1001.8 hPa | 0 mm | - | 208 W/m² | - |
| 1776970590 | 26.11° C | 52% | 1002.1 hPa | 0 mm | - | 230 W/m² | - |
| 1776970287 | 25.56° C | 50% | 1002.1 hPa | 0 mm | - | 220 W/m² | - |
| 1776969983 | 25.56° C | 51% | 1002.1 hPa | 0 mm | - | 243 W/m² | - |
| 1776969680 | 25.56° C | 52% | 1002.1 hPa | 0 mm | - | 235 W/m² | - |
| 1776969377 | 25.56° C | 50% | 1001.8 hPa | 0 mm | - | 297 W/m² | - |
| 1776969074 | 25.56° C | 50% | 1002.1 hPa | 0 mm | - | 276 W/m² | - |
| 1776968769 | 25° C | 53% | 1002.1 hPa | 0 mm | - | 385 W/m² | - |
| 1776968464 | 25° C | 52% | 1002.1 hPa | 0 mm | - | 300 W/m² | - |
| 1776968159 | 25° C | 52% | 1002.5 hPa | 0 mm | - | 221 W/m² | - |
| 1776967856 | 25.56° C | 52% | 1002.8 hPa | 0 mm | - | 121 W/m² | - |
| 1776967553 | 25.56° C | 52% | 1002.8 hPa | 0 mm | - | 104 W/m² | - |
| 1776967252 | 25.56° C | 51% | 1002.5 hPa | 0 mm | - | 170 W/m² | - |
| 1776966947 | 26.11° C | 51% | 1002.5 hPa | 0 mm | - | 192 W/m² | - |
| 1776966643 | 26.11° C | 51% | 1002.8 hPa | 0 mm | - | 188 W/m² | - |
| 1776966339 | 26.11° C | 52% | 1002.8 hPa | 0 mm | - | 220 W/m² | - |
| 1776966034 | 26.67° C | 50% | 1002.8 hPa | 0 mm | - | 275 W/m² | - |
| 1776965731 | 26.67° C | 51% | 1002.8 hPa | 0 mm | - | 249 W/m² | - |
| 1776965429 | 26.67° C | 50% | 1002.5 hPa | 0 mm | - | 386 W/m² | - |
| 1776965127 | 26.67° C | 51% | 1002.8 hPa | 0 mm | - | 361 W/m² | - |
| 1776964822 | 26.67° C | 49% | 1003.2 hPa | 0 mm | - | 486 W/m² | - |
| 1776964517 | 26.67° C | 48% | 1002.8 hPa | 0 mm | - | 759 W/m² | - |
| 1776964215 | 26.67° C | 51% | 1003.2 hPa | 0 mm | - | 764 W/m² | - |
| 1776963911 | 26.67° C | 50% | 1003.2 hPa | 0 mm | - | 521 W/m² | - |
* Rain latest hour (hover to see other rain measurements)
** Current wind speed in m/s (hover to see current wind gust speed)